sat.trackr.live / text

‹ back to catalog

UNKNOWN

NORAD 81011

UNKNOWN UNKNOWN UNKNOWN

§ Identity

Operator
Country
Launch date
Launch site
Launch vehicle
Mass (kg)
RCS (m²)

External: N2YO · Heavens-Above

§ Orbital elements

Epoch: 2026-05-24T23:39:15.413184Z

Period
102.26 min
Inclination
99.3617°
Eccentricity
0.0135534
Mean motion
14.08142924 rev/d
Perigee alt
767.6 km
Apogee alt
963.9 km
Semi-major
7,243.9 km
B*
1.3533e-3
RAAN
165.8363°
Arg perigee
59.0874°
Mean anomaly
16.2208°
Rev number
648

§ Raw data

UNKNOWN1 81011U          26144.98559506  .00002464  00000+0  13533-2 0  99972 81011  99.3617 165.8363 0135534  59.0874  16.2208 14.08142924  6486

JSON: /api/v1/satellites/81011 · /tle

For live sub-satellite position, see the globe view (requires WebGL).

§ Visibility from observer

Set your observer location to see the next 7 days of passes ≥ 10°. The values pass through the URL so the page stays shareable.

No JS? Fill the form by hand. The geolocation button needs JavaScript.